Vorticity
12 12 12 12 12 11 11 11 11 10 10 10 9 9 9 9 9 9 10 10 10 10 10 10 10 10 9 9 9 8 8 7 7 7 6 6 6 6 6 7 8 10 11 11 11 10 10 9 7 4 1 -2 -3 -3 -0 4 8 11 13 13 12 10 8 6 5 4 3 2 1
13 13 13 12 12 12 12 11 11 10 10 10 9 9 9 9 10 10 10 10 11 11 11 11 11 10 10 9 9 8 8 7 7 6 6 6 7 7 7 8 10 11 12 12 11 10 8 5 1 -2 -4 -5 -3 0 4 8 11 12 12 11 9 8 6 5 5 4 3 2 1
13 13 13 13 12 12 12 11 10 10 10 9 9 9 9 9 10 10 10 11 11 11 11 11 11 11 10 10 9 9 8 7 7 6 6 7 7 8 8 9 11 12 12 12 10 7 4 -1 -4 -5 -5 -2 1 5 8 10 11 12 11 9 8 6 5 5 5 5 4 4 2
13 13 12 12 11 11 11 10 10 10 10 9 9 10 10 10 10 10 10 10 11 11 12 12 11 11 11 10 10 9 8 8 7 7 6 7 7 8 9 10 11 12 12 10 7 3 -1 -4 -5 -3 -1 2 4 6 8 10 10 10 9 7 6 5 4 4 5 6 7 7 4
13 12 11 10 10 10 10 10 10 10 10 10 10 10 10 10 10 10 10 10 11 11 11 11 11 11 11 10 10 9 9 8 7 7 7 7 8 9 10 11 11 10 8 5 2 -1 -3 -3 -2 0 2 3 4 6 7 8 9 8 7 5 4 4 3 4 5 7 10 11 7
12 11 10 9 8 8 8 9 9 9 10 10 10 10 10 10 10 10 10 11 11 11 11 11 11 11 11 10 10 10 9 9 8 8 8 8 8 9 9 9 8 6 3 1 -1 -2 -1 -1 -0 0 1 2 3 5 7 7 7 6 5 3 2 2 3 4 6 9 12 13 9
11 10 9 9 8 7 7 7 7 8 8 9 9 10 10 10 11 11 11 11 11 11 11 11 11 11 11 10 10 10 10 10 9 9 9 8 8 8 7 6 4 2 0 -1 -0 -0 -0 -1 -2 -1 0 2 4 5 6 6 5 4 3 1 1 1 2 4 6 10 13 15 10
10 10 9 8 7 7 7 6 6 6 6 6 7 8 9 10 11 11 11 12 12 12 12 12 12 12 12 11 11 11 11 11 10 10 9 9 7 6 5 3 2 1 1 1 -0 -2 -3 -4 -3 -1 1 3 5 6 6 6 4 3 2 1 1 1 3 5 8 12 15 15 11
10 9 8 8 7 7 6 6 6 5 5 5 5 5 6 7 8 9 10 10 11 11 12 12 13 13 13 13 12 12 11 11 11 10 9 8 7 5 4 2 2 1 0 -2 -4 -6 -6 -4 -1 2 4 6 7 8 7 6 5 3 2 2 1 2 4 7 10 13 15 14 12
9 8 7 7 7 6 6 5 5 5 5 5 4 4 5 5 5 5 5 6 6 7 8 9 9 9 10 10 9 9 9 9 8 7 6 5 4 2 1 1 0 -2 -4 -7 -7 -6 -3 1 3 6 7 9 9 9 8 6 4 3 2 2 3 4 6 10 13 15 15 14 11
7 6 6 6 6 5 5 5 5 5 5 5 4 4 4 4 4 4 3 2 1 1 2 2 2 2 3 3 2 2 2 2 1 1 0 -0 -1 -1 -1 -2 -3 -4 -5 -5 -2 1 4 6 8 9 10 10 9 8 6 4 3 2 2 2 4 6 8 12 15 15 14 12 10
6 6 6 6 5 5 5 5 5 5 5 5 4 4 4 4 5 5 4 3 2 1 -0 -1 -1 -1 -1 -1 -2 -2 -2 -2 -2 -2 -1 -0 0 1 1 0 0 1 2 4 6 8 10 11 11 11 10 8 6 4 3 2 2 2 2 3 5 8 11 14 15 15 13 10 11
6 6 6 6 6 6 6 6 6 6 6 6 5 5 5 5 5 6 7 7 7 6 5 4 3 3 2 2 2 2 3 3 4 5 6 7 8 7 7 6 7 7 9 10 11 12 13 12 11 9 7 5 4 3 3 3 3 3 4 4 8 11 14 15 14 13 11 11 12
6 6 6 6 6 6 7 7 7 7 7 7 7 6 6 5 6 7 8 10 12 12 12 11 11 10 9 9 10 11 11 12 13 14 14 13 12 10 10 10 10 11 11 11 11 11 10 9 7 6 4 3 4 4 4 4 4 4 5 7 11 14 15 15 13 12 11 12 13
8 7 7 6 7 7 7 7 7 7 8 9 9 9 8 7 7 6 7 8 11 12 13 13 13 13 13 13 14 15 15 16 15 14 13 11 10 10 10 10 9 9 8 8 7 6 5 4 3 2 3 4 5 5 5 4 5 6 8 11 13 15 15 13 12 11 12 13 12
10 9 8 7 8 8 8 7 7 7 9 10 10 10 10 10 8 7 6 6 6 7 8 10 10 11 12 12 12 12 11 10 9 8 7 7 7 7 7 6 6 5 4 4 3 3 2 1 1 2 4 6 6 6 5 5 6 8 11 14 14 14 13 11 11 12 13 13 11
12 12 11 9 8 7 7 7 6 6 7 8 9 9 9 9 8 7 5 4 3 2 3 4 4 5 5 5 4 3 2 2 1 1 2 3 4 4 4 4 4 4 3 3 2 2 1 2 4 5 7 7 7 6 5 6 8 10 13 14 14 13 12 11 12 13 13 11 10
10 11 12 11 8 7 6 6 5 4 4 5 5 5 5 5 5 5 4 3 1 0 -0 -1 -1 -1 -1 -1 -2 -3 -4 -4 -3 -2 -0 1 2 3 3 3 3 3 3 3 3 3 4 5 7 8 8 7 6 6 6 7 10 12 13 13 13 12 12 13 14 13 11 9 9
7 7 9 12 11 10 9 8 7 6 5 5 4 4 4 4 4 4 4 4 3 2 2 2 1 1 1 1 1 1 1 1 1 2 3 4 4 4 4 3 3 3 4 4 5 6 7 8 9 8 7 6 6 6 7 9 11 13 13 13 12 13 13 15 14 12 9 8 8
4 4 4 8 11 14 15 15 15 14 13 11 10 8 8 7 7 7 8 8 8 9 9 9 9 10 10 10 10 10 10 10 10 10 9 8 7 6 5 4 4 5 6 7 8 8 8 8 7 6 6 5 6 7 9 11 13 14 13 13 13 14 15 14 12 9 8 8 8
-2 -0 2 4 7 11 14 16 17 16 16 14 13 12 11 11 11 11 12 12 13 14 14 15 15 15 15 16 16 16 16 15 14 12 11 9 8 7 6 6 7 8 8 9 8 8 7 6 6 6 6 6 6 8 10 13 14 14 13 12 13 14 14 12 9 8 8 8 8
-7 -6 -5 -2 0 3 6 8 8 8 8 8 8 9 10 11 11 11 11 12 13 13 14 14 14 14 14 14 14 14 13 13 12 10 9 8 7 7 8 9 9 9 8 7 7 6 6 6 6 6 6 6 8 11 13 14 13 12 12 12 13 13 12 9 8 8 8 8 8
-0 -2 -5 -6 -7 -6 -2 2 2 1 1 3 4 5 6 8 8 8 8 8 9 9 10 10 10 10 10 10 10 10 9 9 8 7 7 7 7 8 9 9 8 7 6 6 6 6 6 6 6 6 7 8 10 12 13 13 12 11 11 13 13 12 10 8 8 8 8 8 8
9 8 5 0 -6 -8 -7 -2 -1 -4 -6 -3 2 4 5 6 5 4 4 4 5 6 6 6 7 7 7 7 7 7 7 6 6 5 6 7 8 8 8 7 6 5 5 5 6 6 6 6 6 7 9 10 12 12 12 11 11 12 12 13 12 10 9 8 8 8 8 8 9
10 10 9 7 2 -3 -5 -3 -2 -7 -11 -10 -2 3 6 7 5 4 3 3 4 4 4 4 5 5 5 5 6 6 5 5 5 6 6 7 7 7 6 5 5 5 5 5 6 6 6 6 6 7 8 11 12 12 11 11 12 13 13 12 11 9 8 8 8 8 8 8 9
6 5 4 4 5 4 2 2 1 -5 -11 -13 -5 2 7 8 6 5 3 3 3 4 4 4 4 4 4 5 5 5 5 6 6 7 7 7 6 5 5 5 5 6 6 6 6 6 6 6 7 8 9 10 11 11 11 12 13 13 13 11 10 9 9 8 8 8 9 9 10
6 3 1 -1 1 5 7 9 7 0 -7 -12 -6 2 7 9 8 7 5 4 4 3 3 3 4 4 4 4 5 5 6 6 6 6 6 6 5 5 5 5 6 6 6 6 6 6 6 7 8 10 10 10 10 11 12 13 13 12 11 10 9 9 9 8 8 8 9 10 10
8 5 2 -3 -2 3 9 13 12 4 -5 -11 -5 2 7 10 9 8 7 5 4 4 4 4 4 4 4 4 5 5 5 6 6 5 5 4 5 5 5 5 5 5 6 5 6 7 9 10 10 10 10 9 11 13 15 15 13 11 10 9 9 9 9 9 8 9 9 10 10
9 7 2 -5 -5 1 10 18 16 7 -3 -9 -4 2 7 10 10 9 8 7 6 5 4 4 4 4 4 5 5 5 5 5 4 4 4 5 5 5 5 5 5 5 5 6 9 10 11 12 11 9 9 10 14 16 16 14 12 10 9 9 9 8 8 9 9 10 10 10 9
9 6 1 -7 -6 2 12 21 18 9 -1 -7 -4 -0 4 7 8 9 9 8 7 6 5 4 4 4 5 5 5 5 5 4 4 4 4 4 5 5 5 6 5 5 6 8 9 10 10 9 8 8 10 15 17 17 14 11 10 9 9 9 8 8 9 9 10 10 10 9 8
9 7 2 -4 -4 2 10 16 14 8 1 -4 -3 -1 2 4 6 7 8 7 6 5 5 4 4 5 5 5 5 5 5 4 4 4 4 4 5 6 6 6 6 6 6 7 7 7 6 6 8 12 16 19 17 14 11 10 9 9 9 8 8 9 9 10 10 10 9 8 7
10 9 6 2 -0 1 4 7 6 4 1 -1 -1 -0 2 4 5 6 7 6 5 5 4 4 4 4 4 5 5 5 5 4 4 4 4 4 5 6 6 5 5 5 6 6 7 8 9 10 14 17 19 18 14 11 10 9 9 9 8 9 9 9 10 10 10 9 8 7 6
9 9 7 6 4 3 3 3 3 2 1 1 1 2 3 5 5 6 6 6 5 4 4 3 4 4 4 5 5 5 5 5 4 4 4 5 5 5 4 4 4 5 6 8 10 12 14 16 18 19 17 13 11 9 9 8 8 8 9 9 10 10 10 10 9 8 7 6 5
-0 2 3 3 4 4 5 4 3 3 3 4 4 4 4 4 5 5 6 6 5 4 4 4 4 5 5 5 5 5 5 5 5 5 5 5 4 3 3 2 4 7 10 13 15 17 18 19 19 16 13 10 9 8 8 8 8 9 9 9 10 10 9 9 8 7 6 5 5
-8 -5 -3 -1 2 5 6 6 5 5 6 7 7 5 4 3 4 5 6 6 6 6 6 7 7 7 7 7 7 7 7 8 8 8 7 7 6 5 4 5 9 13 16 19 19 20 19 18 15 12 10 8 8 8 8 8 9 9 9 9 9 9 9 8 8 7 6 5 5
2 0 -0 0 3 6 9 9 7 6 6 7 6 4 2 2 3 6 9 10 10 11 11 10 9 9 8 8 10 11 11 10 10 10 10 10 9 8 9 11 15 19 21 21 20 19 17 14 11 9 8 8 8 8 8 9 9 9 9 9 9 9 8 8 7 6 5 5 5
12 9 6 5 6 7 9 10 8 6 5 4 4 2 1 1 3 7 12 15 15 16 15 12 9 7 6 6 10 13 13 11 9 8 8 8 9 11 13 16 19 20 20 19 17 15 13 10 9 8 8 8 8 8 8 9 9 9 8 9 9 8 8 7 6 5 5 5 5
13 12 11 10 8 7 7 8 8 7 6 5 4 3 3 4 5 7 10 14 17 16 13 9 6 3 2 3 7 10 11 9 7 5 6 8 11 13 16 18 18 18 17 16 14 11 9 8 8 8 8 8 8 8 8 8 8 8 8 9 8 8 7 6 6 5 5 5 6
13 13 13 13 10 8 6 7 8 8 9 9 9 9 8 8 8 10 12 17 17 14 9 6 3 0 -1 0 2 4 6 8 9 9 10 12 14 16 17 17 16 16 15 13 10 9 9 8 8 8 8 8 8 8 8 8 8 8 9 9 8 7 7 6 5 5 5 6 6
14 15 15 14 10 6 4 3 4 7 10 15 17 16 14 12 12 14 18 20 18 14 10 7 5 3 2 2 4 6 9 13 16 16 17 17 17 17 17 17 15 13 11 10 9 9 9 9 8 8 8 7 7 7 8 8 8 9 9 9 8 7 6 5 5 5 6 6 6
16 16 13 8 2 -3 -5 -4 2 10 17 22 22 20 17 15 16 18 19 19 16 13 11 10 10 9 8 9 10 12 15 19 21 21 20 19 18 17 16 14 12 10 10 10 9 9 9 8 8 7 7 7 7 8 8 9 9 9 9 8 7 6 5 5 5 6 6 6 7
Height
5733 5735 5736 5738 5739 5741 5742 5744 5745 5746 5748 5749 5750 5751 5753 5754 5756 5757 5759 5760 5761 5762 5763 5764 5764 5765 5765 5766 5766 5767 5767 5768 5768 5769 5769 5770 5771 5771 5772 5772 5773 5774 5775 5775 5776 5776 5776 5776 5776 5775 5774 5774 5773 5772 5771 5771 5770 5769 5768 5767 5766 5766 5765 5764 5762 5761 5759 5758 5757
5732 5733 5735 5736 5738 5739 5741 5742 5744 5745 5746 5747 5748 5750 5751 5753 5754 5756 5757 5758 5759 5761 5761 5762 5763 5763 5764 5764 5765 5765 5766 5766 5766 5767 5768 5768 5769 5770 5770 5771 5771 5772 5773 5774 5774 5774 5774 5774 5773 5773 5772 5771 5771 5770 5769 5768 5767 5766 5766 5765 5764 5763 5762 5761 5760 5758 5757 5756 5754
5731 5732 5734 5735 5736 5738 5739 5741 5742 5743 5744 5746 5747 5748 5750 5751 5753 5754 5755 5756 5758 5759 5760 5761 5761 5762 5762 5762 5763 5763 5764 5765 5765 5766 5766 5767 5767 5768 5768 5769 5770 5771 5771 5772 5772 5772 5772 5772 5771 5771 5770 5769 5768 5767 5767 5766 5765 5764 5763 5762 5761 5761 5760 5758 5757 5756 5754 5753 5752
5730 5731 5732 5734 5735 5736 5738 5739 5740 5741 5743 5744 5745 5747 5748 5750 5751 5752 5754 5755 5756 5757 5758 5759 5760 5760 5761 5761 5761 5762 5762 5763 5764 5764 5765 5765 5766 5766 5766 5767 5768 5769 5770 5770 5770 5770 5770 5770 5769 5768 5767 5767 5766 5765 5764 5764 5763 5762 5761 5760 5759 5758 5757 5756 5755 5753 5752 5751 5749
5728 5730 5731 5732 5734 5735 5736 5738 5739 5740 5741 5742 5744 5746 5747 5748 5750 5751 5752 5753 5754 5756 5756 5757 5758 5758 5759 5759 5760 5760 5761 5761 5762 5763 5763 5764 5764 5765 5765 5766 5766 5767 5768 5768 5768 5768 5768 5767 5767 5766 5765 5764 5764 5763 5762 5761 5761 5760 5759 5758 5757 5756 5755 5754 5752 5751 5750 5748 5747
5727 5728 5730 5731 5732 5734 5735 5736 5738 5739 5740 5741 5743 5744 5746 5747 5748 5749 5751 5752 5753 5754 5755 5755 5756 5756 5757 5758 5758 5759 5759 5760 5761 5761 5762 5762 5763 5763 5764 5764 5765 5766 5766 5766 5766 5766 5766 5765 5764 5764 5763 5762 5761 5761 5760 5759 5758 5758 5757 5756 5755 5754 5753 5752 5751 5749 5747 5746 5744
5726 5727 5728 5730 5731 5732 5734 5735 5736 5737 5739 5740 5741 5743 5744 5746 5747 5748 5749 5750 5751 5752 5753 5753 5754 5755 5755 5756 5756 5757 5758 5758 5759 5760 5760 5761 5761 5762 5762 5763 5764 5765 5765 5764 5764 5764 5763 5762 5762 5761 5760 5760 5759 5758 5758 5757 5756 5756 5755 5754 5753 5752 5751 5750 5748 5746 5745 5743 5742
5724 5726 5727 5728 5730 5731 5732 5734 5735 5736 5737 5738 5740 5741 5743 5744 5746 5746 5748 5749 5750 5750 5751 5752 5752 5753 5754 5754 5755 5756 5756 5757 5757 5758 5759 5759 5760 5761 5761 5762 5763 5763 5763 5762 5762 5761 5761 5760 5759 5758 5758 5757 5757 5756 5756 5755 5754 5753 5753 5752 5751 5750 5749 5747 5745 5744 5742 5741 5739
5723 5725 5726 5727 5729 5730 5731 5732 5733 5734 5736 5737 5739 5740 5742 5743 5744 5745 5746 5747 5748 5749 5749 5750 5751 5751 5752 5752 5753 5754 5754 5755 5756 5756 5757 5758 5759 5759 5760 5761 5761 5761 5761 5761 5760 5759 5758 5757 5757 5756 5756 5755 5754 5754 5753 5753 5752 5751 5751 5750 5748 5747 5745 5744 5743 5741 5740 5738 5737
5722 5723 5725 5726 5728 5729 5730 5731 5732 5733 5734 5736 5737 5739 5740 5741 5742 5744 5745 5746 5746 5747 5748 5749 5749 5750 5750 5751 5751 5752 5752 5753 5754 5755 5756 5756 5757 5758 5759 5759 5759 5759 5759 5758 5758 5757 5756 5755 5755 5754 5753 5753 5752 5752 5751 5751 5750 5749 5748 5747 5746 5744 5743 5741 5741 5739 5737 5736 5734
5721 5722 5724 5725 5726 5727 5729 5730 5731 5731 5733 5734 5736 5737 5739 5740 5741 5742 5743 5744 5745 5746 5746 5747 5748 5748 5749 5749 5750 5750 5751 5751 5752 5753 5754 5755 5756 5756 5757 5757 5757 5757 5757 5756 5756 5755 5754 5753 5752 5752 5751 5751 5751 5750 5749 5749 5748 5747 5746 5744 5743 5742 5741 5739 5738 5736 5735 5733 5731
5719 5721 5722 5724 5725 5726 5727 5728 5729 5730 5731 5733 5734 5736 5737 5738 5739 5740 5741 5742 5743 5744 5744 5745 5746 5746 5747 5747 5748 5748 5749 5750 5751 5752 5753 5753 5754 5755 5755 5755 5755 5755 5754 5754 5753 5752 5751 5751 5750 5750 5749 5749 5749 5748 5747 5746 5745 5744 5743 5742 5741 5740 5738 5737 5735 5734 5732 5730 5729
5718 5719 5721 5722 5724 5725 5726 5727 5728 5729 5730 5731 5732 5734 5735 5736 5737 5738 5739 5740 5741 5741 5742 5743 5744 5744 5745 5745 5746 5747 5748 5748 5749 5750 5751 5752 5752 5753 5753 5753 5753 5752 5752 5751 5750 5750 5749 5749 5748 5748 5747 5747 5747 5746 5745 5744 5743 5742 5741 5740 5738 5737 5736 5734 5733 5731 5730 5728 5727
5716 5718 5720 5721 5722 5723 5724 5726 5726 5727 5728 5730 5731 5732 5733 5735 5736 5736 5737 5738 5739 5740 5741 5741 5741 5742 5743 5743 5744 5745 5746 5747 5748 5748 5749 5750 5751 5751 5751 5751 5751 5750 5749 5749 5748 5748 5748 5747 5746 5746 5745 5745 5744 5744 5743 5742 5741 5740 5738 5737 5736 5735 5733 5732 5730 5729 5727 5726 5725
5716 5717 5718 5720 5721 5722 5723 5724 5725 5726 5727 5728 5729 5731 5731 5733 5734 5735 5736 5737 5737 5738 5739 5739 5740 5740 5741 5741 5742 5743 5744 5745 5746 5747 5748 5748 5749 5749 5749 5748 5748 5748 5747 5747 5746 5746 5746 5745 5744 5744 5743 5742 5742 5741 5741 5740 5738 5737 5736 5735 5734 5732 5731 5729 5728 5726 5725 5724 5723
5714 5716 5717 5718 5720 5721 5722 5722 5723 5725 5726 5726 5728 5729 5730 5731 5732 5733 5734 5735 5736 5736 5737 5737 5738 5738 5739 5740 5741 5742 5743 5744 5745 5745 5746 5746 5746 5746 5746 5746 5746 5745 5745 5744 5744 5744 5743 5743 5742 5742 5741 5741 5740 5739 5738 5737 5736 5735 5734 5733 5731 5730 5728 5727 5725 5724 5723 5722 5721
5713 5714 5716 5717 5718 5720 5721 5721 5722 5724 5725 5726 5726 5728 5729 5730 5731 5731 5732 5733 5734 5735 5736 5736 5736 5737 5738 5739 5739 5740 5741 5742 5742 5743 5743 5744 5744 5744 5744 5743 5743 5743 5742 5742 5742 5742 5741 5741 5741 5740 5739 5739 5738 5737 5736 5735 5734 5733 5731 5730 5729 5727 5726 5724 5723 5722 5721 5720 5718
5710 5712 5714 5715 5717 5718 5720 5721 5722 5723 5724 5725 5726 5726 5727 5728 5729 5730 5731 5732 5733 5734 5734 5735 5735 5736 5736 5737 5738 5738 5739 5740 5740 5741 5741 5741 5741 5741 5741 5741 5741 5741 5741 5740 5740 5740 5739 5739 5738 5738 5737 5736 5736 5735 5734 5733 5732 5731 5729 5728 5726 5725 5723 5722 5721 5720 5719 5717 5716
5709 5710 5711 5713 5715 5716 5718 5719 5721 5721 5722 5723 5724 5725 5726 5726 5727 5728 5729 5730 5731 5732 5733 5733 5734 5734 5735 5735 5736 5736 5737 5737 5738 5738 5738 5739 5739 5739 5739 5739 5739 5739 5739 5738 5738 5738 5737 5737 5736 5736 5735 5734 5733 5732 5731 5731 5729 5728 5726 5725 5724 5722 5721 5720 5719 5718 5717 5716 5714
5709 5710 5711 5711 5713 5715 5716 5717 5719 5720 5721 5722 5722 5723 5724 5725 5726 5726 5727 5728 5729 5730 5731 5731 5732 5732 5733 5733 5734 5735 5735 5735 5736 5736 5736 5736 5737 5737 5737 5737 5737 5737 5736 5736 5736 5736 5736 5735 5734 5734 5733 5732 5731 5730 5729 5728 5727 5726 5724 5723 5722 5721 5719 5718 5717 5716 5715 5714 5712
5707 5709 5710 5711 5712 5713 5715 5716 5717 5718 5719 5720 5721 5721 5722 5723 5724 5725 5726 5726 5727 5728 5729 5729 5730 5730 5731 5731 5732 5732 5733 5733 5734 5734 5734 5734 5735 5735 5735 5735 5735 5735 5735 5735 5734 5734 5733 5733 5732 5731 5731 5730 5729 5728 5727 5726 5725 5723 5722 5721 5720 5719 5717 5716 5715 5714 5713 5712 5711
5705 5707 5708 5710 5711 5713 5714 5715 5716 5717 5718 5718 5719 5719 5720 5721 5722 5723 5724 5725 5726 5726 5726 5727 5727 5728 5729 5729 5730 5730 5731 5731 5732 5732 5732 5732 5732 5732 5732 5733 5733 5733 5733 5732 5732 5732 5731 5731 5730 5729 5729 5728 5727 5726 5725 5724 5722 5721 5720 5719 5718 5716 5716 5715 5714 5712 5711 5710 5709
5704 5706 5707 5708 5710 5711 5712 5713 5714 5716 5716 5717 5717 5717 5718 5719 5720 5721 5722 5723 5724 5724 5725 5725 5726 5726 5727 5727 5728 5728 5729 5730 5730 5730 5730 5730 5730 5731 5731 5731 5731 5731 5731 5731 5730 5730 5729 5729 5728 5727 5727 5726 5725 5724 5723 5721 5721 5719 5718 5717 5716 5715 5714 5713 5712 5711 5710 5708 5707
5703 5705 5706 5708 5709 5709 5710 5711 5712 5714 5715 5716 5716 5716 5717 5717 5718 5719 5720 5721 5722 5722 5723 5723 5724 5724 5725 5726 5726 5727 5727 5727 5728 5728 5728 5728 5728 5729 5729 5729 5729 5729 5729 5729 5728 5728 5727 5727 5726 5725 5725 5724 5723 5721 5721 5719 5718 5717 5716 5715 5714 5713 5712 5711 5710 5709 5708 5707 5706
5702 5704 5706 5707 5708 5708 5709 5710 5711 5712 5714 5715 5715 5715 5715 5716 5716 5717 5718 5719 5720 5720 5721 5721 5722 5723 5723 5724 5725 5725 5726 5726 5726 5726 5726 5727 5727 5727 5727 5727 5727 5727 5727 5727 5726 5726 5726 5725 5724 5723 5722 5721 5721 5720 5718 5717 5716 5715 5714 5713 5712 5711 5711 5710 5709 5708 5706 5705 5704
5701 5703 5704 5706 5706 5707 5708 5709 5710 5711 5713 5713 5713 5713 5714 5714 5714 5715 5716 5717 5718 5718 5719 5720 5720 5721 5722 5722 5723 5724 5724 5724 5724 5725 5725 5725 5726 5726 5726 5726 5726 5726 5725 5725 5725 5724 5723 5723 5722 5721 5720 5719 5718 5717 5716 5715 5714 5714 5713 5712 5711 5710 5709 5708 5707 5706 5705 5704 5703
5698 5700 5702 5704 5705 5706 5706 5707 5709 5710 5711 5712 5712 5712 5712 5712 5712 5713 5715 5716 5716 5717 5717 5718 5719 5719 5720 5721 5721 5722 5722 5722 5723 5723 5723 5724 5724 5724 5724 5724 5724 5724 5723 5723 5723 5722 5721 5721 5720 5719 5718 5717 5716 5715 5715 5714 5713 5712 5711 5710 5710 5709 5708 5707 5706 5705 5704 5702 5701
5696 5698 5699 5701 5702 5703 5704 5706 5707 5709 5710 5710 5711 5710 5710 5710 5711 5712 5713 5714 5715 5715 5716 5716 5717 5718 5718 5719 5720 5720 5721 5721 5721 5721 5722 5722 5722 5722 5722 5722 5722 5722 5721 5721 5721 5720 5719 5719 5718 5717 5716 5715 5714 5713 5713 5712 5711 5711 5710 5709 5708 5707 5706 5705 5704 5703 5702 5701 5700
5694 5696 5697 5698 5700 5701 5703 5704 5706 5707 5708 5709 5709 5709 5708 5709 5710 5711 5712 5713 5713 5714 5714 5715 5715 5716 5717 5717 5718 5719 5719 5719 5720 5720 5720 5720 5721 5721 5721 5720 5720 5720 5720 5719 5719 5718 5717 5717 5716 5715 5714 5714 5713 5712 5711 5711 5710 5709 5708 5707 5707 5706 5705 5704 5703 5701 5701 5699 5698
5692 5694 5695 5696 5698 5699 5701 5702 5704 5705 5706 5707 5707 5707 5707 5707 5708 5710 5711 5711 5711 5712 5712 5713 5714 5715 5715 5716 5716 5717 5717 5718 5718 5718 5718 5719 5719 5719 5719 5718 5718 5718 5717 5717 5716 5716 5716 5715 5714 5713 5713 5712 5711 5710 5710 5709 5708 5707 5707 5706 5705 5704 5703 5702 5701 5700 5699 5697 5696
5691 5692 5693 5694 5696 5697 5699 5700 5702 5703 5705 5705 5705 5706 5706 5706 5707 5708 5709 5709 5710 5710 5711 5711 5712 5713 5713 5714 5715 5715 5715 5716 5717 5717 5717 5717 5717 5717 5717 5716 5716 5716 5716 5715 5715 5714 5714 5713 5712 5712 5711 5710 5710 5709 5708 5707 5707 5706 5705 5705 5704 5703 5702 5701 5700 5698 5697 5696 5695
5689 5691 5691 5693 5694 5696 5697 5699 5701 5701 5702 5703 5704 5704 5705 5705 5706 5706 5707 5707 5708 5709 5709 5710 5710 5711 5712 5712 5713 5713 5714 5714 5715 5715 5715 5715 5715 5715 5715 5715 5714 5714 5714 5713 5713 5712 5712 5711 5711 5710 5710 5709 5708 5707 5706 5706 5705 5705 5704 5703 5702 5701 5700 5699 5698 5697 5696 5694 5693
5688 5689 5690 5691 5693 5695 5696 5697 5699 5699 5700 5701 5702 5703 5703 5704 5704 5705 5705 5706 5706 5707 5707 5708 5709 5709 5710 5711 5711 5712 5712 5712 5712 5713 5713 5713 5713 5713 5713 5713 5713 5712 5712 5712 5711 5711 5710 5710 5709 5709 5708 5707 5706 5706 5705 5705 5704 5703 5702 5702 5701 5700 5699 5698 5696 5695 5694 5693 5691
5686 5687 5689 5690 5692 5693 5695 5696 5697 5697 5698 5699 5701 5701 5702 5702 5702 5703 5703 5704 5705 5705 5705 5706 5707 5708 5708 5709 5710 5710 5710 5710 5711 5711 5711 5711 5711 5711 5711 5711 5711 5711 5711 5710 5709 5709 5708 5708 5707 5707 5706 5706 5705 5704 5704 5703 5702 5702 5701 5700 5699 5698 5697 5696 5695 5694 5693 5691 5690
5684 5686 5687 5689 5691 5692 5693 5694 5695 5696 5696 5698 5699 5700 5700 5700 5701 5701 5702 5702 5702 5703 5703 5704 5706 5706 5707 5707 5708 5709 5709 5709 5709 5709 5709 5709 5709 5709 5709 5709 5709 5709 5708 5708 5707 5707 5707 5706 5706 5705 5705 5704 5704 5703 5702 5702 5701 5701 5700 5699 5698 5697 5696 5695 5694 5692 5691 5690 5688
5683 5685 5686 5688 5689 5691 5691 5692 5693 5694 5695 5696 5697 5698 5698 5699 5699 5700 5701 5700 5700 5701 5702 5703 5704 5705 5706 5706 5707 5707 5708 5707 5707 5707 5707 5707 5708 5708 5707 5707 5707 5707 5706 5706 5706 5706 5705 5705 5704 5704 5703 5703 5702 5701 5701 5701 5700 5699 5698 5697 5696 5696 5695 5693 5692 5691 5690 5688 5687
5681 5683 5685 5686 5687 5689 5690 5691 5691 5692 5693 5694 5695 5696 5696 5697 5698 5699 5700 5698 5698 5699 5701 5702 5703 5703 5704 5705 5705 5706 5706 5706 5706 5706 5706 5706 5706 5706 5706 5705 5705 5705 5705 5705 5704 5704 5704 5703 5703 5702 5702 5701 5701 5700 5700 5699 5698 5698 5697 5696 5695 5694 5693 5692 5691 5690 5688 5687 5685
5680 5681 5683 5684 5685 5686 5687 5688 5689 5690 5691 5692 5693 5694 5695 5696 5697 5697 5696 5696 5697 5698 5699 5700 5701 5702 5702 5703 5704 5704 5705 5704 5704 5704 5704 5704 5704 5704 5704 5703 5703 5703 5703 5703 5703 5702 5702 5701 5701 5701 5700 5700 5699 5699 5698 5698 5697 5696 5696 5695 5694 5693 5692 5691 5690 5688 5687 5685 5684
5677 5679 5680 5681 5682 5683 5685 5686 5687 5688 5689 5691 5691 5692 5693 5694 5695 5695 5694 5695 5696 5697 5698 5699 5700 5700 5701 5702 5702 5702 5702 5702 5702 5702 5702 5702 5702 5702 5702 5702 5702 5701 5701 5701 5701 5701 5701 5700 5700 5699 5699 5699 5698 5698 5697 5696 5696 5695 5694 5694 5693 5692 5691 5690 5688 5687 5685 5684 5682
5675 5676 5677 5679 5680 5681 5682 5684 5685 5686 5687 5688 5689 5691 5692 5692 5693 5693 5693 5694 5695 5696 5697 5698 5698 5699 5699 5700 5700 5700 5700 5700 5700 5700 5700 5700 5700 5700 5700 5700 5700 5700 5700 5700 5700 5699 5699 5699 5698 5698 5698 5697 5697 5696 5696 5695 5695 5694 5693 5692 5692 5691 5689 5688 5687 5686 5684 5682 5680
5673 5674 5676 5677 5679 5680 5681 5682 5683 5684 5685 5686 5688 5689 5690 5691 5691 5691 5692 5693 5694 5695 5696 5696 5697 5697 5698 5698 5698 5697 5698 5698 5698 5698 5698 5698 5699 5699 5699 5699 5699 5699 5698 5698 5698 5698 5697 5697 5697 5697 5696 5696 5696 5695 5695 5694 5694 5693 5692 5691 5691 5689 5688 5686 5685 5684 5682 5680 5678